• în Republica Moldova
  • Lista ţărilor
  • Pe 7 zile
  • Temperatura apei
  • Hartă satelitară
  • Meteo pe hartă
  • Widget-uri
  • user-avatar
    Intrare

    Meteo pe oră la Innsbruck

    Astăzi, 27 Februarie, Luni

    Timp Temperatura Precipitaţii Vânt Presiune Umiditate
    00:00 -4°C° 0,1 mm 1 m/s 591 mmHg 91%
    01:00 -3°C° 0 mm 1 m/s 591 mmHg 90%
    02:00 -3°C° 0,1 mm 1 m/s 591 mmHg 91%
    03:00 -4°C° 0,1 mm 1 m/s 591 mmHg 92%
    04:00 -4°C° 0,1 mm 1 m/s 590 mmHg 93%
    05:00 -3°C° 0,1 mm 1 m/s 590 mmHg 93%
    06:00 -3°C° 0,1 mm 1 m/s 590 mmHg 93%
    07:00 -3°C° 0 mm 1 m/s 590 mmHg 93%
    08:00 -2°C° 0 mm 1 m/s 591 mmHg 93%
    09:00 -3°C° 0 mm 2 m/s 591 mmHg 93%
    10:00 -2°C° 0 mm 2 m/s 591 mmHg 94%
    11:00 -1°C° 0 mm 2 m/s 591 mmHg 93%
    12:00 +1°C° 0 mm 2 m/s 591 mmHg 92%
    13:00 +1°C° 0 mm 2 m/s 591 mmHg 91%
    14:00 +1°C° 0 mm 2 m/s 590 mmHg 92%
    15:00 +1°C° 0 mm 2 m/s 590 mmHg 92%
    16:00 +1°C° 0 mm 2 m/s 589 mmHg 92%
    17:00 -2°C° 0 mm 2 m/s 589 mmHg 94%
    18:00 -4°C° 0 mm 2 m/s 588 mmHg 95%
    19:00 -6°C° 0 mm 3 m/s 587 mmHg 96%
    20:00 -7°C° 0 mm 3 m/s 587 mmHg 95%
    21:00 -7°C° 0 mm 3 m/s 587 mmHg 95%
    22:00 -7°C° 0 mm 3 m/s 586 mmHg 95%
    23:00 -7°C° 0 mm 3 m/s 586 mmHg 94%

    Mâine, 28 Februarie, Marţi

    Timp Temperatura Precipitaţii Vânt Presiune Umiditate
    00:00 -7°C° 0 mm 3 m/s 586 mmHg 94%
    01:00 -7°C° 0 mm 3 m/s 585 mmHg 94%
    02:00 -7°C° 0 mm 3 m/s 585 mmHg 93%
    03:00 -7°C° 0 mm 3 m/s 584 mmHg 93%
    04:00 -7°C° 0 mm 3 m/s 584 mmHg 93%
    05:00 -7°C° 0,1 mm 3 m/s 583 mmHg 93%
    06:00 -7°C° 0,1 mm 3 m/s 583 mmHg 94%
    07:00 -7°C° 0,1 mm 3 m/s 583 mmHg 94%
    08:00 -6°C° 0,5 mm 3 m/s 583 mmHg 94%
    09:00 -4°C° 0,5 mm 2 m/s 584 mmHg 94%
    10:00 -3°C° 0,5 mm 2 m/s 584 mmHg 94%
    11:00 -3°C° 1,5 mm 2 m/s 584 mmHg 95%
    12:00 -4°C° 1,5 mm 2 m/s 583 mmHg 95%
    13:00 -4°C° 1,5 mm 2 m/s 583 mmHg 96%
    14:00 -4°C° 1,2 mm 2 m/s 582 mmHg 96%
    15:00 -4°C° 1,2 mm 2 m/s 582 mmHg 96%
    16:00 -4°C° 1,2 mm 2 m/s 581 mmHg 97%
    17:00 -4°C° 1 mm 2 m/s 581 mmHg 97%
    18:00 -5°C° 1 mm 2 m/s 581 mmHg 97%
    19:00 -5°C° 1 mm 2 m/s 580 mmHg 98%
    20:00 -6°C° 1,7 mm 2 m/s 581 mmHg 98%
    21:00 -6°C° 1,7 mm 2 m/s 581 mmHg 98%
    22:00 -7°C° 1,7 mm 2 m/s 581 mmHg 98%
    23:00 -8°C° 1,3 mm 2 m/s 581 mmHg 98%

    Poimâine, 1 Martie, Miercuri

    Timp Temperatura Precipitaţii Vânt Presiune Umiditate
    00:00 -8°C° 1,3 mm 2 m/s 581 mmHg 97%
    01:00 -9°C° 1,3 mm 2 m/s 581 mmHg 97%
    02:00 -10°C° 0,3 mm 2 m/s 581 mmHg 97%
    03:00 -10°C° 0,3 mm 2 m/s 582 mmHg 97%
    04:00 -10°C° 0,3 mm 2 m/s 582 mmHg 96%
    05:00 -10°C° 0 mm 2 m/s 582 mmHg 96%
    06:00 -12°C° 0 mm 2 m/s 582 mmHg 95%
    07:00 -12°C° 0 mm 2 m/s 582 mmHg 95%
    08:00 -9°C° 0 mm 2 m/s 583 mmHg 94%
    09:00 -8°C° 0 mm 2 m/s 584 mmHg 93%
    10:00 -7°C° 0 mm 2 m/s 586 mmHg 92%
    11:00 -6°C° 0,1 mm 2 m/s 586 mmHg 91%
    12:00 -6°C° 0,1 mm 2 m/s 586 mmHg 91%
    13:00 -5°C° 0,1 mm 2 m/s 587 mmHg 90%
    14:00 -6°C° 0,2 mm 2 m/s 587 mmHg 91%
    15:00 -6°C° 0,2 mm 2 m/s 588 mmHg 92%
    16:00 -6°C° 0,2 mm 2 m/s 588 mmHg 93%
    17:00 -9°C° 0 mm 2 m/s 587 mmHg 93%
    18:00 -12°C° 0 mm 2 m/s 587 mmHg 94%
    19:00 -13°C° 0 mm 1 m/s 586 mmHg 95%
    20:00 -15°C° 0 mm 2 m/s 586 mmHg 95%
    21:00 -15°C° 0 mm 2 m/s 587 mmHg 94%
    22:00 -15°C° 0 mm 2 m/s 587 mmHg 93%
    23:00 -13°C° 0 mm 2 m/s 588 mmHg 93%

    2 Martie, Joi

    Timp Temperatura Precipitaţii Vânt Presiune Umiditate
    00:00 -12°C° 0 mm 2 m/s 588 mmHg 92%
    01:00 -10°C° 0 mm 2 m/s 589 mmHg 91%
    02:00 -9°C° 0,2 mm 2 m/s 589 mmHg 91%
    03:00 -9°C° 0,2 mm 2 m/s 589 mmHg 92%
    04:00 -8°C° 0,2 mm 2 m/s 589 mmHg 92%
    05:00 -8°C° 0,3 mm 2 m/s 590 mmHg 92%
    06:00 -8°C° 0,3 mm 2 m/s 590 mmHg 92%
    07:00 -8°C° 0,3 mm 2 m/s 590 mmHg 92%
    08:00 -6°C° 0,1 mm 2 m/s 591 mmHg 93%
    09:00 -5°C° 0,1 mm 2 m/s 592 mmHg 94%
    10:00 -1°C° 0,1 mm 1 m/s 592 mmHg 94%
    11:00 -1°C° 0,2 mm 1 m/s 593 mmHg 95%
    12:00 0°C° 0,2 mm 1 m/s 593 mmHg 95%
    13:00 0°C° 0,2 mm 1 m/s 593 mmHg 95%
    14:00 0°C° 0,4 mm 1 m/s 593 mmHg 96%
    15:00 0°C° 0,4 mm 1 m/s 593 mmHg 96%
    16:00 0°C° 0,4 mm 1 m/s 593 mmHg 97%
    17:00 -1°C° 0,4 mm 1 m/s 593 mmHg 97%
    18:00 -3°C° 0,4 mm 1 m/s 593 mmHg 97%
    19:00 -5°C° 0,4 mm 0 m/s 592 mmHg 98%
    20:00 -4°C° 0,2 mm 1 m/s 592 mmHg 97%
    21:00 -6°C° 0,2 mm 1 m/s 592 mmHg 97%
    22:00 -6°C° 0,2 mm 1 m/s 592 mmHg 97%
    23:00 -6°C° 0 mm 1 m/s 592 mmHg 97%

    3 Martie, Vineri

    Timp Temperatura Precipitaţii Vânt Presiune Umiditate
    00:00 -7°C° 0 mm 2 m/s 592 mmHg 96%
    01:00 -7°C° 0 mm 2 m/s 592 mmHg 96%
    02:00 -7°C° 0 mm 2 m/s 591 mmHg 96%
    03:00 -7°C° 0 mm 2 m/s 591 mmHg 96%
    04:00 -7°C° 0 mm 2 m/s 591 mmHg 96%
    05:00 -7°C° 0 mm 2 m/s 591 mmHg 96%
    06:00 -7°C° 0 mm 2 m/s 590 mmHg 95%
    07:00 -7°C° 0 mm 2 m/s 590 mmHg 95%
    08:00 -7°C° 0 mm 3 m/s 591 mmHg 95%
    09:00 -5°C° 0 mm 3 m/s 591 mmHg 95%
    10:00 -4°C° 0 mm 3 m/s 591 mmHg 95%
    11:00 -2°C° 0 mm 3 m/s 591 mmHg 95%
    12:00 -2°C° 0 mm 3 m/s 591 mmHg 95%
    13:00 -1°C° 0 mm 3 m/s 591 mmHg 95%
    14:00 -2°C° 0 mm 3 m/s 590 mmHg 95%
    15:00 -2°C° 0 mm 3 m/s 590 mmHg 95%
    16:00 -2°C° 0 mm 3 m/s 589 mmHg 96%
    17:00 -2°C° 0,1 mm 3 m/s 589 mmHg 96%
    18:00 -4°C° 0,1 mm 3 m/s 588 mmHg 96%
    19:00 -5°C° 0,1 mm 3 m/s 588 mmHg 96%
    20:00 -5°C° 0,1 mm 3 m/s 587 mmHg 95%
    21:00 -5°C° 0,1 mm 3 m/s 587 mmHg 95%
    22:00 -5°C° 0,1 mm 3 m/s 587 mmHg 95%
    23:00 -5°C° 0,1 mm 3 m/s 587 mmHg 95%

    4 Martie, Sâmbătă

    Timp Temperatura Precipitaţii Vânt Presiune Umiditate
    00:00 -5°C° 0,1 mm 3 m/s 587 mmHg 95%
    01:00 -5°C° 0,1 mm 3 m/s 587 mmHg 95%
    02:00 -6°C° 0,1 mm 3 m/s 587 mmHg 96%
    03:00 -5°C° 0,1 mm 2 m/s 587 mmHg 96%
    04:00 -6°C° 0,1 mm 2 m/s 587 mmHg 97%
    05:00 -6°C° 0,2 mm 2 m/s 587 mmHg 97%
    06:00 -6°C° 0,2 mm 2 m/s 587 mmHg 97%
    07:00 -7°C° 0,2 mm 2 m/s 587 mmHg 97%
    08:00 -5°C° 0,1 mm 2 m/s 588 mmHg 96%
    09:00 -3°C° 0,1 mm 2 m/s 589 mmHg 95%
    10:00 -2°C° 0,1 mm 2 m/s 590 mmHg 94%
    11:00 -1°C° 0,1 mm 2 m/s 590 mmHg 93%
    12:00 -1°C° 0,1 mm 2 m/s 590 mmHg 92%
    13:00 +1°C° 0,1 mm 2 m/s 590 mmHg 92%
    14:00 +1°C° 0,1 mm 2 m/s 590 mmHg 92%
    15:00 +1°C° 0,1 mm 2 m/s 589 mmHg 93%
    16:00 -1°C° 0,1 mm 2 m/s 589 mmHg 93%
    17:00 -1°C° 0,2 mm 2 m/s 589 mmHg 94%
    18:00 -2°C° 0,2 mm 2 m/s 588 mmHg 95%
    19:00 -4°C° 0,2 mm 3 m/s 588 mmHg 96%
    20:00 -4°C° 0,1 mm 3 m/s 588 mmHg 95%
    21:00 -4°C° 0,1 mm 3 m/s 588 mmHg 95%
    22:00 -5°C° 0,1 mm 3 m/s 588 mmHg 95%
    23:00 -5°C° 0,1 mm 3 m/s 588 mmHg 95%
    Arată mai mult